Location: Jastrz?bniki
(50.3667°N, 20.3833°E)
Time: 11:38:00
(UTC+00:00)

USA 229 - Pass Details

Date: 05 August 2024
Orbit: 890 x 1322 km, 63.4° (Epoch: 31 August)

Event Time Altitude Azimuth Distance (km) Brightness Sun altitude
Rises 01:12:40 0° 315° (NW) 3,914 6.8 -15.3°
Reaches altitude 10° 01:15:16 10° 318° (NW) 3,014 6.2 -15.0°
Maximum altitude 01:22:33 70° 42° (NE) 1,286 4.3 -14.3°
Drops below altitude 10° 01:30:30 10° 126° (SE) 3,283 6.3 -13.5°
Sets 01:33:26 0° 128° (SE) 4,281 6.9 -13.2°
